Weather History for Pinedale, WY

Change the Weather History Date:

Wednesday, July 23, 2014

  Actual Average (KBPI) Record (KBPI)
Temperature  
Mean Temperature 64 °F 63 °F  
Max Temperature 87 °F 82 °F 94 °F (2003)
Min Temperature 41 °F 44 °F 33 °F (2001)
Degree Days  
Heating Degree Days 1 3  
Month to date heating degree days 91  
Since 1 June heating degree days 396  
Since 1 July heating degree days 91  
Cooling Degree Days 0 1  
Month to date cooling degree days 15  
Year to date cooling degree days 17  
Since 1 June cooling degree days 17  
Growing Degree Days 14 (Base 50)    
Moisture  
Dew Point 35 °F    
Average Humidity 40    
Maximum Humidity 87    
Minimum Humidity 13    
Precipitation  
Precipitation 0.00 in 0.02 in 0.27 in (1993)
Month to date precipitation 0.48  
Year to date precipitation 3.74  
Sea Level Pressure  
Sea Level Pressure 30.35 in    
Wind  
Wind Speed 7 mph (WSW)    
Max Wind Speed 29 mph    
Max Gust Speed 40 mph    
Visibility 10 miles    
Events Rain , Thunderstorm    
T = Trace of Precipitation, MM = Missing Value Source: NWS Daily Summary

Daily Weather History Graph

Daily Weather History Graph

Search for Another Location

Airport:

Trip Planner

Search our weather history database for the weather conditions in past years. The results will help you decide how hot, cold, wet, or windy it might be!

Date:

Astronomy

Jul. 23, 2014 Rise Set
Actual Time 6:01 AM MDT 8:49 PM MDT
Civil Twilight 5:28 AM MDT 9:22 PM MDT
Nautical Twilight 4:46 AM MDT 10:03 PM MDT
Astronomical Twilight 3:58 AM MDT 10:51 PM MDT
Moon 3:23 AM MDT (7/23) 6:20 PM MDT (7/23)
Length of Visible Light 15h 53m
Length of Day
14h 47m
Waning Crescent, 9% of the Moon is Illuminated
Jul 23
Waning Crescent
Jul 26
New
Aug 3
First Quarter
Aug 10
Full
Aug 17
Last Quarter

Hourly Weather History & Observations

Time (MDT) Temp. Windchill Dew Point Humidity Pressure Visibility Wind Dir Wind Speed Gust Speed Precip Events Conditions
12:15 AM 51.8 °F - 42.8 °F 71% 30.41 in 10.0 mi NW 4.6 mph - N/A   Clear
12:35 AM 50.0 °F - 42.8 °F 76% 30.41 in 10.0 mi WNW 4.6 mph - N/A   Clear
12:55 AM 48.2 °F - 41.0 °F 76% 30.40 in 10.0 mi NW 4.6 mph - N/A   Clear
1:15 AM 50.0 °F - 41.0 °F 71% 30.40 in 10.0 mi NW 6.9 mph - N/A   Clear
1:35 AM 46.4 °F 44.3 °F 41.0 °F 81% 30.40 in 10.0 mi WNW 4.6 mph - N/A   Clear
1:55 AM 46.4 °F 43.5 °F 41.0 °F 81% 30.40 in 10.0 mi WNW 5.8 mph - N/A   Clear
2:15 AM 46.4 °F 43.5 °F 41.0 °F 81% 30.40 in 10.0 mi WNW 5.8 mph - N/A   Clear
2:35 AM 44.6 °F 41.4 °F 41.0 °F 87% 30.39 in 10.0 mi West 5.8 mph - N/A   Clear
2:55 AM 44.6 °F 40.2 °F 41.0 °F 87% 30.39 in 10.0 mi West 8.1 mph - N/A   Clear
3:15 AM 44.6 °F 40.7 °F 39.2 °F 81% 30.39 in 10.0 mi West 6.9 mph - N/A   Clear
3:35 AM 44.6 °F 40.7 °F 39.2 °F 81% 30.39 in 10.0 mi West 6.9 mph - N/A   Clear
4:15 AM 44.6 °F 40.7 °F 37.4 °F 76% 30.39 in 10.0 mi NW 6.9 mph - N/A   Clear
4:35 AM 44.6 °F 40.2 °F 37.4 °F 76% 30.39 in 10.0 mi West 8.1 mph - N/A   Clear
4:55 AM 42.8 °F 39.3 °F 37.4 °F 81% 30.39 in 10.0 mi WNW 5.8 mph - N/A   Clear
5:15 AM 42.8 °F 39.3 °F 37.4 °F 81% 30.40 in 10.0 mi West 5.8 mph - N/A   Clear
5:35 AM 42.8 °F 39.3 °F 37.4 °F 81% 30.40 in 10.0 mi West 5.8 mph - N/A   Clear
5:55 AM 42.8 °F 41.1 °F 35.6 °F 76% 30.40 in 10.0 mi West 3.5 mph - N/A   Clear
6:15 AM 41.0 °F - 35.6 °F 81% 30.40 in 10.0 mi North - - N/A   Clear
6:35 AM 42.8 °F - 37.4 °F 81% 30.40 in 10.0 mi North - - N/A   Clear
6:55 AM 46.4 °F - 37.4 °F 71% 30.40 in 10.0 mi North - - N/A   Clear
7:15 AM 44.6 °F - 37.4 °F 76% 30.41 in 10.0 mi North - - N/A   Clear
7:35 AM 46.4 °F - 39.2 °F 76% 30.41 in 10.0 mi North - - N/A   Clear
7:55 AM 50.0 °F - 41.0 °F 71% 30.42 in 10.0 mi North - - N/A   Clear
8:15 AM 53.6 °F - 41.0 °F 62% 30.42 in 10.0 mi West 4.6 mph - N/A   Clear
8:35 AM 59.0 °F - 37.4 °F 45% 30.42 in 10.0 mi Calm Calm - N/A   Clear
8:55 AM 62.6 °F - 39.2 °F 42% 30.42 in 10.0 mi WNW 3.5 mph - N/A   Clear
9:15 AM 64.4 °F - 37.4 °F 37% 30.42 in 10.0 mi NW 3.5 mph - N/A   Clear
9:35 AM 69.8 °F - 35.6 °F 28% 30.41 in 10.0 mi Calm Calm - N/A   Clear
9:55 AM 71.6 °F - 35.6 °F 27% 30.40 in 10.0 mi East 5.8 mph - N/A   Clear
10:15 AM 75.2 °F - 35.6 °F 24% 30.40 in 10.0 mi East 4.6 mph - N/A   Clear
10:35 AM 78.8 °F - 33.8 °F 20% 30.40 in 10.0 mi East 4.6 mph - N/A   Clear
10:55 AM 78.8 °F - 35.6 °F 21% 30.39 in 10.0 mi East 4.6 mph - N/A   Clear
11:15 AM 80.6 °F - 32.0 °F 17% 30.39 in 10.0 mi East 4.6 mph - N/A   Clear
11:35 AM 82.4 °F - 30.2 °F 15% 30.38 in 10.0 mi East 5.8 mph - N/A   Clear
11:55 AM 82.4 °F - 28.4 °F 14% 30.38 in 10.0 mi West 6.9 mph - N/A   Clear
12:15 PM 84.2 °F - 28.4 °F 13% 30.38 in 10.0 mi SW 13.8 mph 17.3 mph N/A   Clear
12:35 PM 84.2 °F - 28.4 °F 13% 30.37 in 10.0 mi WSW 8.1 mph - N/A   Clear
12:55 PM 82.4 °F - 30.2 °F 15% 30.37 in 10.0 mi South 10.4 mph 16.1 mph N/A   Clear
1:15 PM 86.0 °F - 30.2 °F 13% 30.36 in 10.0 mi WSW 10.4 mph 17.3 mph N/A   Clear
1:35 PM 86.0 °F - 32.0 °F 14% 30.35 in 10.0 mi SW 11.5 mph 21.9 mph N/A   Clear
1:55 PM 87.8 °F - 32.0 °F 14% 30.35 in 10.0 mi WSW 6.9 mph 17.3 mph N/A   Clear
2:15 PM 87.8 °F - 32.0 °F 14% 30.34 in 10.0 mi WSW 18.4 mph 26.5 mph N/A   Clear
2:35 PM 86.0 °F - 32.0 °F 14% 30.34 in 10.0 mi South 19.6 mph 26.5 mph N/A   Clear
2:55 PM 86.0 °F - 32.0 °F 14% 30.34 in 10.0 mi WSW 10.4 mph 24.2 mph N/A   Scattered Clouds
3:15 PM 87.8 °F - 32.0 °F 14% 30.33 in 10.0 mi SW 13.8 mph 25.3 mph N/A   Scattered Clouds
3:35 PM 87.8 °F - 32.0 °F 14% 30.32 in 10.0 mi SW 10.4 mph 16.1 mph N/A   Scattered Clouds
3:55 PM 87.8 °F - 32.0 °F 14% 30.31 in 10.0 mi West 15.0 mph 23.0 mph N/A   Clear
4:15 PM 87.8 °F - 32.0 °F 14% 30.30 in 10.0 mi WSW 6.9 mph 24.2 mph N/A   Clear
4:35 PM 87.8 °F - 32.0 °F 14% 30.29 in 10.0 mi West 6.9 mph - N/A   Clear
4:55 PM 87.8 °F - 32.0 °F 14% 30.29 in 10.0 mi WNW 13.8 mph - N/A   Scattered Clouds
5:15 PM 87.8 °F - 32.0 °F 14% 30.28 in 10.0 mi WSW 10.4 mph 18.4 mph N/A   Scattered Clouds
5:35 PM 87.8 °F - 32.0 °F 14% 30.27 in 10.0 mi South 5.8 mph 18.4 mph N/A   Scattered Clouds
5:55 PM 87.8 °F - 32.0 °F 14% 30.26 in 10.0 mi West 8.1 mph - N/A   Scattered Clouds
6:15 PM 87.8 °F - 32.0 °F 14% 30.26 in 10.0 mi SSW 6.9 mph 18.4 mph N/A   Scattered Clouds
6:35 PM 86.0 °F - 32.0 °F 14% 30.26 in 10.0 mi SW 13.8 mph 17.3 mph N/A   Clear
6:55 PM 86.0 °F - 32.0 °F 14% 30.26 in 10.0 mi SSW 11.5 mph - N/A   Clear
7:15 PM 86.0 °F - 32.0 °F 14% 30.27 in 10.0 mi NNW 6.9 mph - N/A   Clear
7:35 PM 80.6 °F - 35.6 °F 20% 30.26 in 10.0 mi East 18.4 mph - N/A   Clear
7:55 PM 78.8 °F - 33.8 °F 20% 30.26 in 10.0 mi East 8.1 mph - N/A   Clear
8:15 PM 80.6 °F - 33.8 °F 18% 30.26 in 10.0 mi East 6.9 mph - N/A   Clear
8:35 PM 77.0 °F - 35.6 °F 22% 30.26 in 10.0 mi North - - N/A   Clear
8:55 PM 77.0 °F - 35.6 °F 22% 30.25 in 10.0 mi North - - N/A   Clear
9:15 PM 73.4 °F - 35.6 °F 25% 30.26 in 10.0 mi Calm Calm - N/A   Scattered Clouds
9:35 PM 71.6 °F - 37.4 °F 29% 30.26 in 10.0 mi SSE 9.2 mph - N/A   Mostly Cloudy
10:15 PM 75.2 °F - 35.6 °F 24% 30.26 in 10.0 mi South 15.0 mph - N/A   Scattered Clouds
10:55 PM 73.4 °F - 33.8 °F 23% 30.26 in 10.0 mi South 12.7 mph 19.6 mph N/A   Clear
11:15 PM 69.8 °F - 37.4 °F 31% 30.26 in 10.0 mi ESE 8.1 mph - N/A   Clear
11:35 PM 69.8 °F - 37.4 °F 31% 30.27 in 10.0 mi SE 8.1 mph - N/A Thunderstorm Thunderstorm
11:55 PM 71.6 °F - 41.0 °F 33% 30.31 in 10.0 mi SW 28.8 mph 40.3 mph N/A Rain , Thunderstorm Light Thunderstorms and Rain